Weather History for Daggett-Barstow, CA

Change the Weather History Date:

Wednesday, April 16, 2014

  Actual Average Record
Temperature  
Mean Temperature 74 °F -  
Max Temperature 91 °F 79 °F 96 °F (1987)
Min Temperature 59 °F 51 °F 37 °F (1998)
Cooling Degree Days 10    
Growing Degree Days 24 (Base 50)    
Moisture  
Dew Point 25 °F    
Average Humidity 17    
Maximum Humidity 31    
Minimum Humidity 6    
Precipitation  
Precipitation 0.00 in - - ()
Sea Level Pressure  
Sea Level Pressure 29.71 in    
Wind  
Wind Speed 12 mph (WNW)    
Max Wind Speed 18 mph    
Max Gust Speed 18 mph    
Visibility 10 miles    
Events      
Averages and records for this station are not official NWS values.
T = Trace of Precipitation, MM = Missing Value Source: NWS Daily Summary

Daily Weather History Graph

Daily Weather History Graph

Search for Another Location

Airport:

Trip Planner

Search our weather history database for the weather conditions in past years. The results will help you decide how hot, cold, wet, or windy it might be!

Date:

Astronomy

Apr. 16, 2014 Rise Set
Actual Time 6:13 AM PDT 7:20 PM PDT
Civil Twilight 5:47 AM PDT 7:46 PM PDT
Nautical Twilight 5:16 AM PDT 8:17 PM PDT
Astronomical Twilight 4:44 AM PDT 8:49 PM PDT
Moon 9:05 PM PDT (4/16) 7:07 AM PDT (4/16)
Length of Visible Light 13h 58m
Length of Day
13h 06m
Full, 98% of the Moon is Illuminated
Apr 16
Full
Apr 22
Last Quarter
Apr 28
New
May 6
First Quarter
May 14
Full

Hourly Weather History & Observations

Time (PDT) Temp. Dew Point Humidity Pressure Visibility Wind Dir Wind Speed Gust Speed Precip Events Conditions
12:50 AM 70.0 °F 27.0 °F 20% 29.74 in 10.0 mi SW 18.4 mph - N/A   Clear
1:50 AM 68.0 °F 26.1 °F 21% 29.73 in 10.0 mi West 11.5 mph - N/A   Clear
2:50 AM 66.0 °F 27.0 °F 23% 29.73 in 10.0 mi West 15.0 mph - N/A   Clear
3:50 AM 64.0 °F 27.0 °F 25% 29.72 in 10.0 mi West 10.4 mph - N/A   Clear
4:50 AM 61.0 °F 28.9 °F 30% 29.73 in 10.0 mi WNW 13.8 mph - N/A   Clear
5:50 AM 60.1 °F 28.0 °F 30% 29.73 in 10.0 mi WNW 11.5 mph - N/A   Clear
6:50 AM 59.0 °F 28.0 °F 31% 29.76 in 10.0 mi West 11.5 mph - N/A   Clear
7:50 AM 64.9 °F 28.9 °F 26% 29.78 in 10.0 mi West 12.7 mph - N/A   Clear
8:50 AM 71.1 °F 28.0 °F 20% 29.77 in 10.0 mi WNW 13.8 mph - N/A   Clear
9:50 AM 75.0 °F 27.0 °F 17% 29.76 in 10.0 mi NW 12.7 mph - N/A   Clear
10:50 AM 80.1 °F 21.9 °F 12% 29.76 in 10.0 mi NW 13.8 mph - N/A   Clear
11:50 AM 82.0 °F 25.0 °F 12% 29.74 in 10.0 mi West 10.4 mph - N/A   Clear
12:50 PM 84.9 °F 26.1 °F 12% 29.72 in 10.0 mi NNW 4.6 mph - N/A   Clear
1:50 PM 87.1 °F 25.0 °F 10% 29.69 in 10.0 mi NNW 8.1 mph - N/A   Clear
2:50 PM 89.1 °F 23.0 °F 9% 29.67 in 10.0 mi NNW 6.9 mph - N/A   Clear
3:50 PM 90.0 °F 21.9 °F 8% 29.65 in 10.0 mi WNW 8.1 mph - N/A   Clear
4:50 PM 89.1 °F 18.0 °F 7% 29.63 in 10.0 mi NW 8.1 mph 18.4 mph N/A   Clear
5:50 PM 90.0 °F 15.1 °F 6% 29.63 in 10.0 mi WNW 10.4 mph - N/A   Clear
6:50 PM 87.1 °F 19.9 °F 8% 29.64 in 10.0 mi WNW 6.9 mph - N/A   Clear
7:50 PM 81.0 °F 23.0 °F 12% 29.66 in 10.0 mi West 4.6 mph - N/A   Clear
8:50 PM 79.0 °F 27.0 °F 15% 29.70 in 10.0 mi West 15.0 mph - N/A   Clear
9:50 PM 75.9 °F 26.1 °F 16% 29.73 in 10.0 mi West 13.8 mph - N/A   Clear
11:50 PM 69.1 °F 30.0 °F 23% 29.75 in 10.0 mi West 9.2 mph - N/A   Clear